This is the latest recevied weather packets stored in our database for station/object F1ZVN-13. If no packets are shown the sender has not sent any weather packets the latest 10 day(s).
| Time | Temp. | Humidity | Pressure | Rain* | Wind** | Luminosity | Snow |
|---|---|---|---|---|---|---|---|
| 1778259715 | 8.33° C | 68% | 1004.1 hPa | 0 mm | 0 m/s | - | - |
| 1778259590 | 8.33° C | 68% | 1004.1 hPa | 0 mm | 0 m/s | - | - |
| 1778259468 | 8.33° C | 67% | 1004.2 hPa | 0 mm | 0 m/s | - | - |
| 1778259390 | 8.33° C | 69% | 1004.1 hPa | 0 mm | 0 m/s | - | - |
| 1778259348 | 8.33° C | 69% | 1004.1 hPa | 0 mm | 0 m/s | - | - |
| 1778259225 | 8.33° C | 66% | 1004.2 hPa | 0 mm | 0 m/s | - | - |
| 1778259105 | 8.89° C | 66% | 1004.1 hPa | 0 mm | 0 m/s | - | - |
| 1778258982 | 8.89° C | 68% | 1004.1 hPa | 0 mm | 0 m/s | - | - |
| 1778258870 | 8.33° C | 68% | 1004.2 hPa | 0 mm | 0 m/s | - | - |
| 1778258740 | 8.33° C | 67% | 1004.1 hPa | 0 mm | 0 m/s | - | - |
| 1778258622 | 8.89° C | 66% | 1004.1 hPa | 0 mm | 0 m/s | - | - |
| 1778258137 | 8.33° C | 67% | 1004.2 hPa | 0 mm | 0 m/s | - | - |
| 1778258018 | 8.89° C | 65% | 1004.1 hPa | 0 mm | 0 m/s | - | - |
| 1778257894 | 8.89° C | 64% | 1004.2 hPa | 0 mm | 0 m/s | - | - |
| 1778257652 | 8.89° C | 64% | 1004.2 hPa | 0 mm | 0 m/s | - | - |
| 1778257592 | 8.89° C | 64% | 1004.3 hPa | 0 mm | 0 m/s | - | - |
| 1778257591 | 8.89° C | 66% | 1004.3 hPa | 0 mm | 0 m/s | - | - |
| 1778257591 | 8.89° C | 66% | 1004.3 hPa | 0 mm | 0 m/s | - | - |
| 1778257408 | 8.89° C | 64% | 1004.3 hPa | 0 mm | 0 m/s | - | - |
| 1778257307 | 9.44° C | 64% | 1004.2 hPa | 0 mm | 0 m/s | - | - |
| 1778256923 | 8.89° C | 66% | 1004.3 hPa | 0 mm | 0 m/s | - | - |
| 1778256800 | 8.89° C | 66% | 1004.3 hPa | 0 mm | 0 m/s | - | - |
| 1778256683 | 8.89° C | 66% | 1004.3 hPa | 0 mm | 0 m/s | - | - |
| 1778256439 | 8.89° C | 66% | 1004.5 hPa | 0 mm | 0 m/s | - | - |
| 1778256354 | 8.89° C | 66% | 1004.5 hPa | 0 mm | 0 m/s | - | - |
* Rain latest hour (hover to see other rain measurements)
** Current wind speed in m/s (hover to see current wind gust speed)